Olive Branch, MS

10:22 PM CST on December 12, 2017 (GMT -0600)
Olive Branch

Weather History for KOLV - January, 2014

Change the Weather History Date:

Wednesday, January 15, 2014

  Actual Average (KMEM) Record (KMEM)
Temperature  
Mean Temperature 31 °F -  
Max Temperature 39 °F 47 °F 74 °F (1953)
Min Temperature 23 °F 29 °F 8 °F (1927)
Degree Days  
Heating Degree Days 34    
Moisture  
Dew Point 20 °F    
Average Humidity 67    
Maximum Humidity 93    
Minimum Humidity 49    
Precipitation  
Precipitation 0.00 in - - ()
Sea Level Pressure  
Sea Level Pressure 30.17 in    
Wind  
Wind Speed 9 mph (NW)    
Max Wind Speed 16 mph    
Max Gust Speed 23 mph    
Visibility 10 miles    
Events      
Averages and records for this station are not official NWS values.
T = Trace of Precipitation, MM = Missing Value Source: NWS Daily Summary

Daily Weather History Graph

Daily Weather History Graph

Search for Another Location

Airport or City:

Trip Planner

Search our weather history database for the weather conditions in past years. The results will help you decide how hot, cold, wet, or windy it might be!

Date:

Astronomy

Jan. 15, 2014 Rise Set
Actual Time 7:06 AM CST 5:10 PM CST
Civil Twilight 6:39 AM CST 5:38 PM CST
Nautical Twilight 6:08 AM CST 6:09 PM CST
Astronomical Twilight 5:37 AM CST 6:39 PM CST
Moon 5:06 PM CST (1/15) 6:24 AM CST (1/15)
Length of Visible Light 10h 59m
Length of Day
10h 04m
Full, 100% of the Moon is Illuminated
Jan 15
Full
Jan 15
Full
Jan 23
Last Quarter
Jan 30
New
Feb 6
First Quarter

Hourly Weather History & Observations

Time (CST) Temp. Windchill Dew Point Humidity Pressure Visibility Wind Dir Wind Speed Gust Speed Precip Events Conditions
12:15 AM 39.2 °F 31.2 °F 23.0 °F 52% 30.12 in 10.0 mi NNW 13.8 mph - 0.00 in   Clear
12:35 AM 39.2 °F 31.2 °F 21.2 °F 49% 30.12 in 10.0 mi NNW 13.8 mph - 0.00 in   Clear
12:55 AM 37.4 °F 30.3 °F 21.2 °F 52% 30.12 in 10.0 mi NNW 10.4 mph - 0.00 in   Clear
1:15 AM 37.4 °F 30.3 °F 21.2 °F 52% 30.12 in 9.0 mi NNW 10.4 mph - 0.00 in   Clear
1:35 AM 35.6 °F 29.2 °F 21.2 °F 56% 30.13 in 10.0 mi NNW 8.1 mph - 0.00 in   Clear
1:55 AM 35.6 °F 28.6 °F 21.2 °F 56% 30.14 in 10.0 mi NNW 9.2 mph - 0.00 in   Clear
2:15 AM 35.6 °F 29.2 °F 21.2 °F 56% 30.14 in 10.0 mi NNW 8.1 mph - 0.00 in   Clear
2:35 AM 35.6 °F 29.2 °F 21.2 °F 56% 30.14 in 10.0 mi NW 8.1 mph - 0.00 in   Clear
2:55 AM 35.6 °F 27.1 °F 19.4 °F 52% 30.14 in 9.0 mi NW 12.7 mph - 0.00 in   Clear
3:15 AM 35.6 °F 27.1 °F 19.4 °F 52% 30.15 in 10.0 mi NW 12.7 mph - 0.00 in   Clear
3:35 AM 35.6 °F 28.6 °F 19.4 °F 52% 30.15 in 9.0 mi NW 9.2 mph - 0.00 in   Clear
3:55 AM 33.8 °F 25.8 °F 21.2 °F 60% 30.15 in 10.0 mi NW 10.4 mph - 0.00 in   Clear
4:15 AM 32.0 °F 25.6 °F 21.2 °F 64% 30.15 in 10.0 mi NW 6.9 mph - 0.00 in   Clear
4:35 AM 32.0 °F 26.4 °F 21.2 °F 64% 30.15 in 10.0 mi NW 5.8 mph - 0.00 in   Clear
4:55 AM 32.0 °F 26.4 °F 21.2 °F 64% 30.16 in 10.0 mi NW 5.8 mph - 0.00 in   Clear
5:15 AM 32.0 °F 26.4 °F 21.2 °F 64% 30.16 in 10.0 mi NNW 5.8 mph - 0.00 in   Clear
5:35 AM 32.0 °F 25.6 °F 19.4 °F 60% 30.16 in 10.0 mi NNW 6.9 mph - 0.00 in   Clear
6:50 AM - - - N/A% 30.17 in 10.0 mi NW 8.1 mph - N/A   Clear
7:50 AM - - - N/A% 30.19 in 10.0 mi NW 8.1 mph - N/A   Clear
8:50 AM - - - N/A% 30.22 in 10.0 mi NW 13.8 mph 19.6 mph N/A   Clear
9:50 AM - - - N/A% 30.23 in 10.0 mi WNW 16.1 mph 23.0 mph N/A   Clear
10:55 AM - - - N/A% 30.22 in 10.0 mi North 13.8 mph - N/A   Clear
11:50 AM - - - N/A% 30.20 in 10.0 mi NNW 15.0 mph 19.6 mph N/A   Partly Cloudy
12:50 PM - - - N/A% 30.18 in 10.0 mi WNW 10.4 mph 20.7 mph N/A   Partly Cloudy
1:50 PM - - - N/A% 30.18 in 10.0 mi WNW 13.8 mph - N/A   Scattered Clouds
2:50 PM - - - N/A% 30.18 in 10.0 mi WNW 11.5 mph 17.3 mph N/A   Scattered Clouds
3:50 PM - - - N/A% 30.19 in 10.0 mi West 11.5 mph 17.3 mph N/A   Scattered Clouds
4:50 PM - - - N/A% 30.19 in 10.0 mi NW 11.5 mph 17.3 mph N/A   Partly Cloudy
5:50 PM 30.2 °F 24.3 °F 17.6 °F 60% 30.20 in 10.0 mi NNW 5.8 mph - N/A   Clear
6:50 PM 28.4 °F - 17.6 °F 64% 30.20 in 10.0 mi Calm Calm - N/A   Clear
7:50 PM 28.4 °F - 17.6 °F 64% 30.19 in 10.0 mi Calm Calm - N/A   Clear
7:55 PM 26.6 °F 22.6 °F 17.6 °F 69% 30.19 in 10.0 mi South 3.5 mph - 0.00 in   Clear
8:15 PM 26.6 °F - 17.6 °F 69% 30.19 in 10.0 mi Calm Calm - 0.00 in   Clear
8:35 PM 26.6 °F - 17.6 °F 69% 30.18 in 10.0 mi Calm Calm - 0.00 in   Clear
8:55 PM 24.8 °F - 19.4 °F 80% 30.18 in 10.0 mi Calm Calm - 0.00 in   Clear
9:15 PM 23.0 °F - 19.4 °F 86% 30.18 in 10.0 mi Calm Calm - 0.00 in   Clear
9:35 PM 23.0 °F - 19.4 °F 86% 30.18 in 10.0 mi Calm Calm - 0.00 in   Clear
9:55 PM 24.8 °F - 19.4 °F 80% 30.17 in 9.0 mi Calm Calm - 0.00 in   Clear
10:15 PM 23.0 °F 17.0 °F 19.4 °F 86% 30.16 in 10.0 mi South 4.6 mph - 0.00 in   Clear
10:35 PM 24.8 °F - 19.4 °F 80% 30.16 in 10.0 mi Calm Calm - 0.00 in   Clear
10:55 PM 23.0 °F - 19.4 °F 86% 30.15 in 10.0 mi Calm Calm - 0.00 in   Clear
11:15 PM 23.0 °F 17.0 °F 21.2 °F 93% 30.14 in 10.0 mi South 4.6 mph - 0.00 in   Clear
11:35 PM 23.0 °F 15.8 °F 19.4 °F 86% 30.14 in 10.0 mi South 5.8 mph - 0.00 in   Clear
11:55 PM 23.0 °F 15.8 °F 19.4 °F 86% 30.13 in 9.0 mi SSE 5.8 mph - 0.00 in   Clear